• In India
  • List of Countries
  • For 7 days
  • Water Temperature
  • Satellite Maps
  • Weather Map
  • Weather Widgets
  • user-avatar
    Login

    Hourly Weather Durres

    Today, 19 December, Wednesday

    Time Temperature Precipitation Wind Pressure Humidity
    00:00 +2°C° 0 mm 5 mps 765 mmHg 77%
    01:00 +1°C° 0 mm 5 mps 765 mmHg 78%
    02:00 +1°C° 0 mm 5 mps 765 mmHg 77%
    03:00 +1°C° 0 mm 5 mps 765 mmHg 77%
    04:00 +1°C° 0 mm 5 mps 766 mmHg 77%
    05:00 +1°C° 0 mm 5 mps 766 mmHg 76%
    06:00 +1°C° 0 mm 5 mps 766 mmHg 76%
    07:00 0°C° 0 mm 5 mps 766 mmHg 76%
    08:00 +3°C° 0 mm 4 mps 766 mmHg 74%
    09:00 +5°C° 0 mm 4 mps 766 mmHg 71%
    10:00 +6°C° 0 mm 4 mps 766 mmHg 69%
    11:00 +7°C° 0 mm 4 mps 766 mmHg 68%
    12:00 +8°C° 0 mm 4 mps 766 mmHg 67%
    13:00 +10°C° 0 mm 3 mps 766 mmHg 66%
    14:00 +9°C° 0 mm 3 mps 766 mmHg 69%
    15:00 +9°C° 0 mm 3 mps 766 mmHg 72%
    16:00 +8°C° 0 mm 2 mps 766 mmHg 75%
    17:00 +7°C° 0 mm 2 mps 766 mmHg 75%
    18:00 +6°C° 0 mm 2 mps 767 mmHg 76%
    19:00 +5°C° 0 mm 2 mps 767 mmHg 77%
    20:00 +5°C° 0 mm 2 mps 767 mmHg 76%
    21:00 +5°C° 0 mm 2 mps 767 mmHg 74%
    22:00 +5°C° 0 mm 2 mps 767 mmHg 73%
    23:00 +5°C° 0 mm 2 mps 767 mmHg 72%

    Tomorrow, 20 December, Thursday

    Time Temperature Precipitation Wind Pressure Humidity
    00:00 +5°C° 0 mm 2 mps 767 mmHg 71%
    01:00 +4°C° 0 mm 3 mps 767 mmHg 71%
    02:00 +4°C° 0 mm 3 mps 767 mmHg 70%
    03:00 +4°C° 0 mm 3 mps 767 mmHg 70%
    04:00 +4°C° 0 mm 3 mps 767 mmHg 70%
    05:00 +4°C° 0 mm 4 mps 767 mmHg 70%
    06:00 +4°C° 0 mm 4 mps 767 mmHg 69%
    07:00 +4°C° 0 mm 4 mps 767 mmHg 69%
    08:00 +6°C° 0 mm 4 mps 768 mmHg 67%
    09:00 +7°C° 0 mm 5 mps 768 mmHg 64%
    10:00 +9°C° 0 mm 5 mps 768 mmHg 62%
    11:00 +10°C° 0 mm 5 mps 768 mmHg 62%
    12:00 +10°C° 0 mm 5 mps 767 mmHg 62%
    13:00 +12°C° 0 mm 5 mps 767 mmHg 61%
    14:00 +10°C° 0 mm 5 mps 767 mmHg 65%
    15:00 +9°C° 0 mm 5 mps 767 mmHg 69%
    16:00 +8°C° 0 mm 5 mps 767 mmHg 72%
    17:00 +8°C° 0.1 mm 6 mps 767 mmHg 72%
    18:00 +7°C° 0.1 mm 6 mps 767 mmHg 72%
    19:00 +7°C° 0.1 mm 6 mps 768 mmHg 72%
    20:00 +7°C° 0.1 mm 6 mps 768 mmHg 72%
    21:00 +7°C° 0.1 mm 6 mps 768 mmHg 72%
    22:00 +7°C° 0.1 mm 6 mps 768 mmHg 72%
    23:00 +7°C° 0.2 mm 6 mps 768 mmHg 72%

    Day after tomorrow, 21 December, Friday

    Time Temperature Precipitation Wind Pressure Humidity
    00:00 +7°C° 0.2 mm 5 mps 768 mmHg 73%
    01:00 +7°C° 0.2 mm 5 mps 768 mmHg 73%
    02:00 +7°C° 0.5 mm 5 mps 768 mmHg 73%
    03:00 +8°C° 0.5 mm 4 mps 768 mmHg 74%
    04:00 +8°C° 0.5 mm 4 mps 767 mmHg 75%
    05:00 +8°C° 0.6 mm 4 mps 768 mmHg 77%
    06:00 +8°C° 0.6 mm 4 mps 768 mmHg 80%
    07:00 +9°C° 0.6 mm 3 mps 768 mmHg 82%
    08:00 +10°C° 0.2 mm 3 mps 768 mmHg 81%
    09:00 +10°C° 0.2 mm 3 mps 769 mmHg 80%
    10:00 +11°C° 0.2 mm 3 mps 769 mmHg 79%
    11:00 +11°C° 0 mm 3 mps 769 mmHg 78%
    12:00 +13°C° 0 mm 2 mps 768 mmHg 77%
    13:00 +13°C° 0 mm 2 mps 768 mmHg 76%
    14:00 +13°C° 0 mm 2 mps 768 mmHg 79%
    15:00 +12°C° 0 mm 2 mps 768 mmHg 81%
    16:00 +12°C° 0 mm 2 mps 768 mmHg 84%
    17:00 +10°C° 0 mm 2 mps 769 mmHg 85%
    18:00 +10°C° 0 mm 2 mps 769 mmHg 86%
    19:00 +9°C° 0 mm 2 mps 769 mmHg 88%
    20:00 +9°C° 0 mm 2 mps 769 mmHg 88%
    21:00 +9°C° 0 mm 2 mps 769 mmHg 88%
    22:00 +9°C° 0 mm 2 mps 769 mmHg 89%
    23:00 +9°C° 0 mm 2 mps 769 mmHg 89%

    22 December, Saturday

    Time Temperature Precipitation Wind Pressure Humidity
    00:00 +9°C° 0 mm 3 mps 769 mmHg 89%
    01:00 +8°C° 0 mm 3 mps 769 mmHg 89%
    02:00 +9°C° 0 mm 3 mps 769 mmHg 89%
    03:00 +9°C° 0 mm 2 mps 768 mmHg 89%
    04:00 +9°C° 0 mm 2 mps 768 mmHg 89%
    05:00 +9°C° 0 mm 2 mps 768 mmHg 90%
    06:00 +9°C° 0 mm 2 mps 768 mmHg 90%
    07:00 +9°C° 0 mm 2 mps 768 mmHg 90%
    08:00 +10°C° 0 mm 2 mps 768 mmHg 87%
    09:00 +11°C° 0 mm 3 mps 768 mmHg 83%
    10:00 +12°C° 0 mm 3 mps 768 mmHg 80%
    11:00 +12°C° 0 mm 3 mps 768 mmHg 78%
    12:00 +13°C° 0 mm 3 mps 767 mmHg 75%
    13:00 +13°C° 0 mm 3 mps 767 mmHg 73%
    14:00 +14°C° 0 mm 2 mps 767 mmHg 77%
    15:00 +13°C° 0 mm 2 mps 767 mmHg 81%
    16:00 +12°C° 0 mm 2 mps 767 mmHg 84%
    17:00 +12°C° 0 mm 2 mps 767 mmHg 85%
    18:00 +10°C° 0 mm 2 mps 767 mmHg 87%
    19:00 +10°C° 0 mm 2 mps 767 mmHg 88%
    20:00 +10°C° 0 mm 2 mps 767 mmHg 88%
    21:00 +9°C° 0 mm 2 mps 767 mmHg 88%
    22:00 +9°C° 0 mm 2 mps 767 mmHg 88%
    23:00 +9°C° 0 mm 2 mps 767 mmHg 87%

    23 December, Sunday

    Time Temperature Precipitation Wind Pressure Humidity
    00:00 +9°C° 0 mm 2 mps 767 mmHg 87%
    01:00 +9°C° 0 mm 2 mps 767 mmHg 87%
    02:00 +9°C° 0 mm 2 mps 767 mmHg 87%
    03:00 +8°C° 0 mm 2 mps 766 mmHg 87%
    04:00 +8°C° 0 mm 2 mps 766 mmHg 86%
    05:00 +8°C° 0 mm 2 mps 767 mmHg 86%
    06:00 +8°C° 0 mm 2 mps 767 mmHg 85%
    07:00 +8°C° 0 mm 2 mps 767 mmHg 84%
    08:00 +10°C° 0 mm 2 mps 767 mmHg 80%
    09:00 +12°C° 0 mm 2 mps 767 mmHg 75%
    10:00 +14°C° 0 mm 2 mps 767 mmHg 71%
    11:00 +14°C° 0 mm 2 mps 767 mmHg 69%
    12:00 +15°C° 0 mm 1 mps 767 mmHg 68%
    13:00 +16°C° 0 mm 1 mps 766 mmHg 66%
    14:00 +15°C° 0 mm 1 mps 766 mmHg 71%
    15:00 +14°C° 0 mm 1 mps 766 mmHg 76%
    16:00 +13°C° 0 mm 1 mps 766 mmHg 81%
    17:00 +12°C° 0 mm 1 mps 766 mmHg 82%
    18:00 +12°C° 0 mm 1 mps 767 mmHg 82%
    19:00 +11°C° 0 mm 1 mps 767 mmHg 83%
    20:00 +11°C° 0 mm 1 mps 767 mmHg 82%
    21:00 +11°C° 0 mm 1 mps 767 mmHg 81%
    22:00 +11°C° 0 mm 1 mps 767 mmHg 81%
    23:00 +11°C° 0 mm 1 mps 767 mmHg 80%

    24 December, Monday

    Time Temperature Precipitation Wind Pressure Humidity
    00:00 +11°C° 0 mm 1 mps 767 mmHg 80%
    01:00 +10°C° 0 mm 1 mps 767 mmHg 80%
    02:00 +9°C° 0 mm 2 mps 767 mmHg 80%
    03:00 +9°C° 0 mm 2 mps 766 mmHg 80%
    04:00 +9°C° 0 mm 2 mps 766 mmHg 80%
    05:00 +9°C° 0 mm 2 mps 766 mmHg 80%
    06:00 +9°C° 0 mm 2 mps 766 mmHg 80%
    07:00 +9°C° 0 mm 2 mps 766 mmHg 80%
    08:00 +12°C° 0 mm 2 mps 766 mmHg 77%
    09:00 +13°C° 0 mm 2 mps 766 mmHg 73%
    10:00 +15°C° 0 mm 2 mps 766 mmHg 69%
    11:00 +15°C° 0 mm 2 mps 765 mmHg 69%
    12:00 +16°C° 0 mm 2 mps 765 mmHg 69%
    13:00 +16°C° 0 mm 2 mps 764 mmHg 69%
    14:00 +15°C° 0 mm 1 mps 764 mmHg 74%
    15:00 +14°C° 0 mm 1 mps 764 mmHg 78%
    16:00 +14°C° 0 mm 1 mps 764 mmHg 83%
    17:00 +13°C° 0 mm 1 mps 764 mmHg 85%
    18:00 +13°C° 0 mm 1 mps 764 mmHg 86%
    19:00 +12°C° 0 mm 1 mps 764 mmHg 88%
    20:00 +12°C° 0 mm 1 mps 764 mmHg 87%
    21:00 +12°C° 0 mm 1 mps 765 mmHg 87%
    22:00 +12°C° 0 mm 1 mps 765 mmHg 87%
    23:00 +12°C° 0.1 mm 1 mps 765 mmHg 87%
    Show more